This is the latest recevied weather packets stored in our database for station/object PA3DZX-13. If no packets are shown the sender has not sent any weather packets the latest 10 day(s).
| Time | Temp. | Humidity | Pressure | Rain* | Wind** | Luminosity | Snow |
|---|---|---|---|---|---|---|---|
| 1787929542 | 18.89° C | 73% | 1007.6 hPa | 0 mm | - | - | - |
| 1787928641 | 18.89° C | 81% | 1007.8 hPa | 0 mm | - | - | - |
| 1787927741 | 17.78° C | 89% | 1007.8 hPa | 8.38 mm | - | - | - |
| 1787926840 | 17.78° C | 81% | 1007.8 hPa | 8.64 mm | - | - | - |
| 1787925941 | 20° C | 78% | 1007.4 hPa | 0 mm | - | - | - |
| 1787925040 | 20.56° C | 80% | 1007.4 hPa | 0.25 mm | - | - | - |
| 1787924141 | 20° C | 83% | 1007.4 hPa | 0 mm | - | - | - |
| 1787923240 | 20° C | 82% | 1007.3 hPa | 0 mm | - | - | - |
| 1787922339 | 20.56° C | 81% | 1007.3 hPa | 0 mm | - | - | - |
| 1787921438 | 20° C | 81% | 1007.3 hPa | 0 mm | - | - | - |
| 1787920539 | 20° C | 81% | 1007.4 hPa | 0 mm | - | - | - |
| 1787919638 | 20° C | 79% | 1007.7 hPa | 0 mm | - | - | - |
| 1787918738 | 20° C | 80% | 1007.8 hPa | 0 mm | - | - | - |
| 1787917838 | 20° C | 82% | 1007.7 hPa | 0 mm | - | - | - |
| 1787916938 | 20.56° C | 83% | 1007.6 hPa | 0 mm | - | - | - |
| 1787916036 | 20.56° C | 84% | 1007.4 hPa | 0 mm | - | - | - |
| 1787915136 | 20° C | 88% | 1007.2 hPa | 0 mm | - | - | - |
| 1787914236 | 20° C | 89% | 1007.1 hPa | 0 mm | - | - | - |
| 1787913337 | 20° C | 90% | 1007 hPa | 0 mm | - | - | - |
| 1787912436 | 20° C | 90% | 1007 hPa | 0 mm | - | - | - |
| 1787911536 | 18.89° C | 90% | 1007.3 hPa | 0 mm | - | - | - |
| 1787910635 | 20° C | 90% | 1007.2 hPa | 0 mm | - | - | - |
| 1787909735 | 20° C | 90% | 1007.5 hPa | 0 mm | - | - | - |
| 1787908835 | 20° C | 91% | 1007.4 hPa | 0 mm | - | - | - |
| 1787907935 | 18.89° C | 91% | 1007.3 hPa | 0 mm | - | - | - |
* Rain latest hour (hover to see other rain measurements)
** Current wind speed in m/s (hover to see current wind gust speed)